LROP Weather Reports


time (UTC)temp
C
wind
direction
speed
KPH
gust
KPH
rain 1hr
cm
rain 24hr
cm
rain mn
cm
humidity
%
barometer
mb
20260505024802 8 350 4.8 0.0 0.00 0.00 0.00 94 1015.0
20260505023302 8 350 4.8 0.0 0.00 0.00 0.00 94 1015.0
20260505021802 7 3.2 0.0 0.00 0.00 0.00 93 1015.0
20260505020302 7 3.2 0.0 0.00 0.00 0.00 93 1015.0
20260505014801 8 30 3.2 0.0 0.00 0.00 0.00 94 1015.0
20260505013302 8 30 3.2 0.0 0.00 0.00 0.00 94 1015.0
20260505011802 8 70 4.8 0.0 0.00 0.00 0.00 87 1015.0
20260505010302 8 70 4.8 0.0 0.00 0.00 0.00 87 1015.0
20260505004802 10 3.2 0.0 0.00 0.00 0.00 88 1015.0
20260505003302 10 3.2 0.0 0.00 0.00 0.00 88 1015.0
20260505001802 11 30 4.8 0.0 0.00 0.00 0.00 82 1015.0
20260505000302 11 30 4.8 0.0 0.00 0.00 0.00 82 1015.0
20260504234802 11 30 1.6 0.0 0.00 0.00 0.00 82 1015.0
20260504233302 11 30 1.6 0.0 0.00 0.00 0.00 82 1015.0
20260504231802 11 3.2 0.0 0.00 0.00 0.00 82 1015.0
20260504230302 11 3.2 0.0 0.00 0.00 0.00 82 1015.0
20260504224801 12 3.2 0.0 0.00 0.00 0.00 77 1015.0
20260504223302 12 3.2 0.0 0.00 0.00 0.00 77 1015.0
20260504221825 12 40 8.0 0.0 0.00 0.00 0.00 77 1015.0
20260504220302 12 40 8.0 0.0 0.00 0.00 0.00 77 1015.0
20260504214802 12 50 4.8 0.0 0.00 0.00 0.00 77 1015.0
20260504213318 12 50 4.8 0.0 0.00 0.00 0.00 77 1015.0
20260504211801 12 30 4.8 0.0 0.00 0.00 0.00 72 1015.0
20260504210302 12 30 4.8 0.0 0.00 0.00 0.00 72 1015.0
20260504204802 12 0 0.0 0.0 0.00 0.00 0.00 72 1015.0
20260504203303 12 0 0.0 0.0 0.00 0.00 0.00 72 1015.0
20260504201801 12 0 0.0 0.0 0.00 0.00 0.00 72 1015.0
20260504200302 12 0 0.0 0.0 0.00 0.00 0.00 72 1015.0
20260504194802 12 110 4.8 0.0 0.00 0.00 0.00 72 1015.0
20260504193302 12 110 4.8 0.0 0.00 0.00 0.00 72 1015.0
20260504191802 13 150 9.7 0.0 0.00 0.00 0.00 67 1015.0
20260504190302 13 150 9.7 0.0 0.00 0.00 0.00 67 1015.0
20260504184802 15 160 9.7 0.0 0.00 0.00 0.00 68 1015.0
20260504183312 15 160 9.7 0.0 0.00 0.00 0.00 68 1015.0
20260504181802 15 120 4.8 0.0 0.00 0.00 0.00 68 1015.0
20260504180302 15 120 4.8 0.0 0.00 0.00 0.00 68 1015.0
20260504174802 16 110 8.0 0.0 0.00 0.00 0.00 63 1015.0
20260504173302 16 110 8.0 0.0 0.00 0.00 0.00 63 1015.0
20260504171802 17 120 8.0 0.0 0.00 0.00 0.00 56 1015.0
20260504170302 17 120 8.0 0.0 0.00 0.00 0.00 56 1015.0
20260504160303 20 120 9.7 0.0 0.00 0.00 0.00 49 1014.0
20260504150302 21 1.6 0.0 0.00 0.00 0.00 38 1015.0
20260504140303 21 3.2 0.0 0.00 0.00 0.00 38 1015.0
20260504130302 21 100 9.7 0.0 0.00 0.00 0.00 38 1015.0
20260504120301 21 80 8.0 0.0 0.00 0.00 0.00 38 1015.0
20260504110302 20 3.2 0.0 0.00 0.00 0.00 35 1016.0
20260504100302 20 1.6 0.0 0.00 0.00 0.00 38 1016.0
20260504081802 17 260 8.0 0.0 0.00 0.00 0.00 43 1017.0
20260504080301 17 260 8.0 0.0 0.00 0.00 0.00 43 1017.0
20260504070303 16 260 4.8 0.0 0.00 0.00 0.00 48 1017.0
20260504050312 8 290 11.3 0.0 0.00 0.00 0.00 71 1017.0
20260504044802 7 280 8.0 0.0 0.00 0.00 0.00 76 1017.0
20260504043302 7 280 8.0 0.0 0.00 0.00 0.00 76 1017.0
20260504041802 6 260 8.0 0.0 0.00 0.00 0.00 81 1017.0
20260504040302 6 260 8.0 0.0 0.00 0.00 0.00 81 1017.0
20260504034802 3 270 11.3 0.0 0.00 0.00 0.00 93 1017.0
20260504033302 3 270 11.3 0.0 0.00 0.00 0.00 93 1017.0
20260504031802 3 270 12.9 0.0 0.00 0.00 0.00 93 1017.0
20260504030416 3 270 12.9 0.0 0.00 0.00 0.00 93 1017.0